• In Belarus
  • List of Countries
  • For 7 days
  • Water Temperature
  • Satellite Maps
  • Weather Map
  • Weather Widgets
  • user-avatar
    Login

    Hourly Weather Jalalabad

    Today, 25 February, Sunday

    Time Temperature Precipitation Wind Pressure Humidity
    00:00 +13°C° 0.1 mm 1 mps 711 mmHg 71%
    01:00 +13°C° 0.1 mm 1 mps 711 mmHg 71%
    02:00 +12°C° 0.1 mm 1 mps 711 mmHg 71%
    03:00 +12°C° 0 mm 1 mps 712 mmHg 70%
    04:00 +12°C° 0 mm 1 mps 712 mmHg 69%
    05:00 +12°C° 0 mm 1 mps 712 mmHg 68%
    06:00 +12°C° 0 mm 1 mps 712 mmHg 65%
    07:00 +13°C° 0 mm 1 mps 712 mmHg 63%
    08:00 +13°C° 0 mm 1 mps 713 mmHg 60%
    09:00 +15°C° 0 mm 1 mps 713 mmHg 58%
    10:00 +16°C° 0 mm 1 mps 713 mmHg 55%
    11:00 +18°C° 0 mm 1 mps 713 mmHg 52%
    12:00 +19°C° 0 mm 1 mps 713 mmHg 50%
    13:00 +20°C° 0 mm 1 mps 712 mmHg 48%
    14:00 +21°C° 0 mm 1 mps 712 mmHg 46%
    15:00 +21°C° 0 mm 1 mps 712 mmHg 46%
    16:00 +21°C° 0 mm 1 mps 712 mmHg 46%
    17:00 +21°C° 0 mm 1 mps 712 mmHg 46%
    18:00 +20°C° 0 mm 1 mps 712 mmHg 48%
    19:00 +19°C° 0 mm 1 mps 712 mmHg 50%
    20:00 +18°C° 0 mm 1 mps 712 mmHg 52%
    21:00 +18°C° 0 mm 1 mps 712 mmHg 53%
    22:00 +16°C° 0 mm 1 mps 712 mmHg 53%
    23:00 +16°C° 0 mm 1 mps 712 mmHg 54%

    Tomorrow, 26 February, Monday

    Time Temperature Precipitation Wind Pressure Humidity
    00:00 +16°C° 0.1 mm 1 mps 712 mmHg 53%
    01:00 +16°C° 0.1 mm 1 mps 711 mmHg 52%
    02:00 +16°C° 0.1 mm 1 mps 711 mmHg 51%
    03:00 +16°C° 0.2 mm 2 mps 711 mmHg 52%
    04:00 +16°C° 0.2 mm 2 mps 711 mmHg 52%
    05:00 +16°C° 0.2 mm 2 mps 711 mmHg 52%
    06:00 +16°C° 0.3 mm 2 mps 711 mmHg 53%
    07:00 +17°C° 0.3 mm 2 mps 711 mmHg 53%
    08:00 +17°C° 0.3 mm 2 mps 711 mmHg 54%
    09:00 +18°C° 0.1 mm 2 mps 711 mmHg 51%
    10:00 +19°C° 0.1 mm 2 mps 711 mmHg 48%
    11:00 +20°C° 0.1 mm 2 mps 711 mmHg 46%
    12:00 +21°C° 0.1 mm 2 mps 711 mmHg 45%
    13:00 +21°C° 0.1 mm 2 mps 710 mmHg 44%
    14:00 +23°C° 0.1 mm 2 mps 710 mmHg 42%
    15:00 +21°C° 0.1 mm 2 mps 709 mmHg 43%
    16:00 +21°C° 0.1 mm 2 mps 709 mmHg 43%
    17:00 +21°C° 0.1 mm 2 mps 709 mmHg 44%
    18:00 +21°C° 0.1 mm 2 mps 709 mmHg 46%
    19:00 +20°C° 0.1 mm 2 mps 709 mmHg 48%
    20:00 +19°C° 0.1 mm 2 mps 709 mmHg 51%
    21:00 +19°C° 0.7 mm 2 mps 710 mmHg 54%
    22:00 +18°C° 0.7 mm 2 mps 710 mmHg 57%
    23:00 +18°C° 0.7 mm 3 mps 710 mmHg 60%

    Day after tomorrow, 27 February, Tuesday

    Time Temperature Precipitation Wind Pressure Humidity
    00:00 +17°C° 0.8 mm 2 mps 710 mmHg 63%
    01:00 +17°C° 0.8 mm 2 mps 710 mmHg 66%
    02:00 +16°C° 0.8 mm 2 mps 710 mmHg 70%
    03:00 +16°C° 0 mm 2 mps 710 mmHg 70%
    04:00 +15°C° 0 mm 2 mps 709 mmHg 71%
    05:00 +15°C° 0 mm 2 mps 709 mmHg 71%
    06:00 +15°C° 0 mm 2 mps 710 mmHg 68%
    07:00 +15°C° 0 mm 1 mps 710 mmHg 66%
    08:00 +16°C° 0 mm 1 mps 710 mmHg 63%
    09:00 +18°C° 0 mm 1 mps 710 mmHg 60%
    10:00 +19°C° 0 mm 1 mps 711 mmHg 57%
    11:00 +20°C° 0 mm 1 mps 711 mmHg 54%
    12:00 +21°C° 0 mm 1 mps 710 mmHg 52%
    13:00 +22°C° 0 mm 1 mps 710 mmHg 50%
    14:00 +22°C° 0 mm 1 mps 709 mmHg 48%
    15:00 +22°C° 0 mm 1 mps 709 mmHg 48%
    16:00 +22°C° 0 mm 1 mps 709 mmHg 47%
    17:00 +23°C° 0 mm 1 mps 709 mmHg 46%
    18:00 +22°C° 0 mm 1 mps 709 mmHg 48%
    19:00 +21°C° 0 mm 1 mps 710 mmHg 51%
    20:00 +20°C° 0 mm 1 mps 710 mmHg 53%
    21:00 +19°C° 0 mm 1 mps 710 mmHg 53%
    22:00 +19°C° 0 mm 1 mps 711 mmHg 53%
    23:00 +17°C° 0 mm 2 mps 711 mmHg 52%

    28 February, Wednesday

    Time Temperature Precipitation Wind Pressure Humidity
    00:00 +17°C° 0 mm 2 mps 710 mmHg 52%
    01:00 +17°C° 0 mm 2 mps 710 mmHg 51%
    02:00 +16°C° 0 mm 2 mps 710 mmHg 51%
    03:00 +16°C° 0 mm 2 mps 710 mmHg 50%
    04:00 +16°C° 0 mm 2 mps 709 mmHg 49%
    05:00 +16°C° 0 mm 2 mps 709 mmHg 48%
    06:00 +16°C° 0 mm 2 mps 709 mmHg 47%
    07:00 +17°C° 0 mm 2 mps 710 mmHg 45%
    08:00 +17°C° 0 mm 2 mps 710 mmHg 44%
    09:00 +18°C° 0 mm 2 mps 710 mmHg 41%
    10:00 +20°C° 0 mm 2 mps 711 mmHg 38%
    11:00 +22°C° 0 mm 1 mps 711 mmHg 36%
    12:00 +23°C° 0 mm 1 mps 710 mmHg 36%
    13:00 +23°C° 0 mm 1 mps 709 mmHg 36%
    14:00 +24°C° 0 mm 1 mps 709 mmHg 36%
    15:00 +23°C° 0.1 mm 1 mps 709 mmHg 37%
    16:00 +23°C° 0.1 mm 1 mps 708 mmHg 37%
    17:00 +23°C° 0.1 mm 1 mps 708 mmHg 38%
    18:00 +22°C° 0.2 mm 1 mps 708 mmHg 40%
    19:00 +22°C° 0.2 mm 1 mps 709 mmHg 42%
    20:00 +21°C° 0.2 mm 1 mps 709 mmHg 44%
    21:00 +20°C° 0.9 mm 1 mps 709 mmHg 48%
    22:00 +19°C° 0.9 mm 2 mps 709 mmHg 52%
    23:00 +18°C° 0.9 mm 2 mps 709 mmHg 56%

    1 March, Thursday

    Time Temperature Precipitation Wind Pressure Humidity
    00:00 +18°C° 0.8 mm 2 mps 709 mmHg 59%
    01:00 +17°C° 0.8 mm 2 mps 709 mmHg 62%
    02:00 +17°C° 0.8 mm 2 mps 708 mmHg 65%
    03:00 +16°C° 0.3 mm 2 mps 708 mmHg 66%
    04:00 +16°C° 0.3 mm 2 mps 708 mmHg 67%
    05:00 +16°C° 0.3 mm 1 mps 708 mmHg 68%
    06:00 +16°C° 0.3 mm 1 mps 708 mmHg 68%
    07:00 +16°C° 0.3 mm 1 mps 708 mmHg 67%
    08:00 +16°C° 0.3 mm 1 mps 708 mmHg 67%
    09:00 +16°C° 0.2 mm 1 mps 708 mmHg 65%
    10:00 +18°C° 0.2 mm 1 mps 708 mmHg 63%
    11:00 +18°C° 0.2 mm 1 mps 708 mmHg 61%
    12:00 +18°C° 0.4 mm 1 mps 708 mmHg 62%
    13:00 +19°C° 0.4 mm 1 mps 707 mmHg 63%
    14:00 +19°C° 0.4 mm 1 mps 707 mmHg 64%
    15:00 +18°C° 0.4 mm 1 mps 706 mmHg 65%
    16:00 +18°C° 0.4 mm 1 mps 706 mmHg 66%
    17:00 +18°C° 0.4 mm 1 mps 706 mmHg 68%
    18:00 +18°C° 0.4 mm 1 mps 706 mmHg 69%
    19:00 +18°C° 0.4 mm 1 mps 707 mmHg 71%
    20:00 +16°C° 0.4 mm 1 mps 707 mmHg 73%
    21:00 +16°C° 0.2 mm 1 mps 707 mmHg 73%
    22:00 +16°C° 0.2 mm 1 mps 707 mmHg 74%
    23:00 +16°C° 0.2 mm 1 mps 707 mmHg 75%

    2 March, Friday

    Time Temperature Precipitation Wind Pressure Humidity
    00:00 +15°C° 0.1 mm 1 mps 706 mmHg 75%
    01:00 +15°C° 0.1 mm 1 mps 706 mmHg 75%
    02:00 +15°C° 0.1 mm 1 mps 706 mmHg 75%
    03:00 +14°C° 0.1 mm 1 mps 706 mmHg 74%
    04:00 +14°C° 0.1 mm 1 mps 705 mmHg 74%
    05:00 +14°C° 0.1 mm 1 mps 705 mmHg 73%
    06:00 +14°C° 0.1 mm 1 mps 706 mmHg 70%
    07:00 +15°C° 0.1 mm 1 mps 706 mmHg 67%
    08:00 +16°C° 0.1 mm 1 mps 707 mmHg 64%
    09:00 +18°C° 0 mm 1 mps 707 mmHg 61%
    10:00 +19°C° 0 mm 1 mps 707 mmHg 57%
    11:00 +20°C° 0 mm 1 mps 707 mmHg 53%
    12:00 +20°C° 0 mm 1 mps 707 mmHg 51%
    13:00 +21°C° 0 mm 1 mps 706 mmHg 49%
    14:00 +21°C° 0 mm 2 mps 706 mmHg 46%
    15:00 +21°C° 0.1 mm 2 mps 706 mmHg 45%
    16:00 +21°C° 0.1 mm 2 mps 706 mmHg 43%
    17:00 +21°C° 0.1 mm 2 mps 706 mmHg 42%
    18:00 +21°C° 0 mm 1 mps 706 mmHg 46%
    19:00 +20°C° 0 mm 1 mps 706 mmHg 49%
    20:00 +19°C° 0 mm 1 mps 707 mmHg 53%
    21:00 +18°C° 0 mm 1 mps 707 mmHg 54%
    22:00 +16°C° 0 mm 1 mps 708 mmHg 55%
    23:00 +16°C° 0 mm 1 mps 708 mmHg 56%
    Show more